#timestamp,LO_Frequency,Hit,StdDev 
1635112815.5,286046999.3,N
1635112835.3,286046996.9,N
1635112855.1,286046999.1,N
1635112875.9,286046999.0,N
1635112895.7,286047000.8,N
1635112915.5,286047000.7,N
1635112935.4,286047001.2,N
1635112955.2,286047000.9,N
1635112975.1,286047000.9,N
1635112976.0,286047000.9,N
1635112995.8,286047000.9,N
1635113015.6,286046999.7,N
1635113035.5,286047000.3,N
1635113055.3,286047000.6,N
1635113075.1,286047000.6,N
1635113095.9,286047000.2,N
1635113115.7,286046999.8,N
1635113135.6,286047000.0,N
1635113155.4,286047002.7,N
1635113175.2,286047000.3,N
1635113195.1,286047001.0,N
1635113196.0,286047001.0,N
1635113215.8,286046998.5,N
1635113235.6,286046998.4,N
1635113255.5,286046998.5,N
1635113275.3,286047000.7,N
1635113295.2,286047000.0,N
1635113315.9,286046999.9,N
1635113335.7,286047000.0,N
1635113355.6,286047000.3,N
1635113375.4,286047002.4,N
1635113395.2,286047000.2,N
1635113415.1,286047001.6,N
1635113416.0,286047001.6,N
1635113435.8,286047002.5,N
1635113455.7,286047002.8,N
1635113475.5,286047002.7,N
1635113495.3,286047002.7,N
1635113515.2,286047002.5,N
1635113535.0,286047002.7,N
1635113535.9,286047002.7,N
1635113555.8,286047002.4,N
1635113575.6,286047002.8,N
1635113595.4,286047000.4,N
1635113615.3,286047000.1,N
1635113635.1,286047000.1,N
1635113655.9,286047002.3,N
1635113675.7,286047000.5,N
1635113695.5,286047000.2,N
1635113715.4,286047000.0,N
1635113735.2,286047000.6,N
1635113755.0,286047000.4,N
1635113755.9,286047000.4,N
1635113775.8,286046998.1,N
1635113795.6,286047000.7,N
1635113815.5,286047000.4,N
1635113835.3,286047000.0,N
1635113855.1,286047001.2,N
1635113875.9,286046998.8,N
1635113895.7,286046998.6,N
1635113915.6,286046998.2,N
1635113935.4,286046998.2,N
1635113955.2,286046999.1,N
1635113975.1,286046996.8,N
1635113976.0,286046996.8,N
1635113995.8,286046999.5,N
1635114015.7,286046998.5,N
1635114035.5,286046998.5,N
1635114055.3,286046998.4,N
1635114075.2,286046997.1,N
1635114095.9,286046998.0,N
1635114115.7,286046997.6,N
1635114135.6,286046995.5,Y
1635114155.4,286046994.9,P
1635114175.3,286046994.9,N
1635114195.1,286046995.7,N
1635114196.0,286046995.7,N
1635114215.8,286046995.0,N
1635114235.7,286046995.7,N
1635114255.5,286046996.3,N
1635114275.4,286046995.8,Y
1635114295.2,286046999.3,P
1635114315.0,286047001.2,N
1635114315.9,286047001.2,N
1635114335.8,286047001.2,N
1635114355.6,286047001.2,N
1635114375.5,286047000.7,N
1635114395.3,286046999.9,N
1635114415.1,286047000.2,N
1635114435.9,286046998.1,N
1635114455.7,286047000.9,N
1635114475.5,286047000.2,N
1635114495.4,286047002.0,N
1635114515.2,286047002.6,N
1635114535.1,286047000.0,N
1635114536.0,286047000.0,N
1635114555.8,286047000.1,N
1635114575.6,286047000.2,N
1635114595.5,286047001.0,N
1635114615.3,286046998.8,N
1635114635.1,286047000.5,N
1635114655.9,286046998.7,N
1635114675.7,286046998.6,N
1635114695.6,286046998.6,N
1635114715.4,286046998.5,N
1635114735.3,286046999.3,N
1635114755.1,286046998.3,N
1635114756.0,286046998.3,N
1635114775.8,286046999.2,N
1635114795.7,286046998.7,N
1635114815.5,286046999.2,N
1635114835.3,286046999.5,N
1635114855.2,286046996.8,N
1635114875.0,286046999.1,N
1635114875.9,286046999.1,N
1635114895.8,286046999.5,N
1635114915.6,286046999.5,N
1635114935.4,286046996.7,N
1635114955.3,286046996.6,N
1635114975.1,286046996.6,N
1635114995.9,286046997.4,N
1635115015.7,286046995.0,Y
1635115035.5,286046996.6,P
1635115055.4,286046999.6,N
1635115075.2,286046999.5,N
1635115095.0,286046997.0,N
1635115095.9,286046997.0,N
1635115115.8,286046997.7,N
1635115135.6,286046997.8,N
1635115155.5,286046999.6,N
1635115175.3,286046999.0,N
1635115195.1,286046999.1,N
1635115215.9,286046998.7,N
1635115235.7,286047001.1,N
1635115255.6,286047001.2,N
1635115275.4,286046998.7,N
1635115295.2,286046999.6,N
1635115315.1,286046997.2,N
1635115316.0,286046997.2,N
1635115335.8,286046997.1,N
1635115355.7,286046997.9,N
1635115375.5,286046995.3,Y
1635115395.3,286046999.2,P
1635115415.2,286046998.6,P
1635115435.0,286046998.2,P
1635115435.9,286046998.2,Y
1635115455.7,286047001.0,P
1635115475.6,286047001.2,N
1635115495.4,286047000.1,N
1635115515.3,286046998.1,N
1635115535.1,286047000.8,N
1635115536.0,286047000.8,N
1635115555.8,286046998.7,N
1635115575.7,286046999.3,N
1635115595.5,286046998.6,N
1635115615.4,286046998.5,N
1635115635.2,286047000.8,N
1635115655.0,286047000.2,N
1635115655.9,286047000.2,N
1635115675.8,286047000.3,N
1635115695.6,286046999.7,N
1635115715.4,286047001.8,N
1635115735.3,286047001.9,N
1635115755.1,286047000.2,N
1635115775.9,286047002.4,N
1635115795.0,286046999.9,N
1635115796.0,286046999.9,N
1635115815.8,286047000.6,N
1635115835.6,286047000.0,N
1635115855.5,286047001.0,N
1635115875.3,286047001.0,N
1635115895.1,286047001.0,N
1635115915.9,286047002.3,N
1635115935.7,286047002.8,N
1635115955.5,286047002.3,N
1635115975.4,286047002.6,N
1635115995.2,286047000.1,N
1635116015.1,286047001.0,N
1635116016.0,286047001.0,N
1635116035.8,286047002.6,N
1635116055.6,286047000.6,N
1635116075.5,286047000.1,N
1635116095.3,286047001.1,N
1635116115.2,286046999.0,N
1635116135.9,286046999.4,N
1635116155.7,286046998.9,N
1635116175.6,286046998.9,N
1635116195.4,286046999.0,N
1635116215.2,286046999.6,N
1635116235.1,286046999.6,N
1635116236.0,286046999.6,N
1635116255.8,286046998.9,N
1635116275.7,286047000.7,N
1635116295.5,286047000.9,N
1635116315.3,286047000.5,N
1635116335.2,286047000.4,N
1635116355.0,286047000.9,N
1635116355.9,286047000.9,N
1635116375.7,286047000.6,N
1635116395.6,286047000.6,N
